Retour au catalogue

STARLINK-37836

ActifCommunicationsSSO
NORAD 69425·PAYLOAD·🇺🇸 United States

Lancé Jun 7, 2026 depuis Vandenberg Space Force Base

Loading…

Prochains Passages (prochaines 24 heures)

TLE

FraisSource: CelesTrak SupGP

Époque: Sep 15, 2026, 03:17 UTC

1 69425C 26126F   26258.13729167  .00006334  00000+0  19656-3 0  2585
2 69425  97.2849 119.4169 0001883  96.9057 146.7766 15.33444864    14

Suivez STARLINK-37836 en temps réel avec AllMySat

Download on the App Store